[[[{"header":{"parameterUnit":"kt","parameterCategory":2,"dx":1,"dy":1,"la1":30.253999710083008,"la2":30.299108505249023,"lo1":-89.0895004272461,"lo2":-89.04439544677734,"nx":28,"ny":28,"refTime":"2022-10-10T21:00:00:Z","depth":0,"parameterNumber":1,"parameterNumberName":"U-component_of_WINDS"},"data":[-6.8775,-6.8893,-6.8879,-6.9009,-6.9019,-6.9106,-6.9133,-6.9166,-6.919,-6.9294,-6.9352,-6.9351,-6.9369,-6.9437,-6.95,-6.9498,-6.9526,-6.958,-6.9569,-6.9339,-6.9306,-6.9275,-6.9245,-6.9586,-6.9587,-6.981,-6.9812,-6.9813,-6.8614,-6.8624,-6.8688,-6.874,-6.8795,-6.8735,-6.8772,-6.8823,-6.8903,-6.8932,-6.8986,-6.9077,-6.9147,-6.9147,-6.9212,-6.927,-6.9246,-6.9289,-6.9285,-6.9289,-6.9042,-6.9011,-6.9308,-6.9308,-6.9308,-6.9308,-6.9308,-6.9308,-6.8318,-6.8389,-6.841,-6.8479,-6.8501,-6.8536,-6.8602,-6.8597,-6.866,-6.8723,-6.8693,-6.8783,-6.881,-6.888,-6.89,-6.8972,-6.8921,-6.8963,-6.8974,-6.8986,-6.9002,-6.8686,-6.8982,-6.8981,-6.898,-6.8979,-6.8978,0,-6.8096,-6.8079,-6.8136,-6.8192,-6.824,-6.8281,-6.8316,-6.8357,-6.8313,-6.8367,-6.8443,-6.8485,-6.8569,-6.864,-6.8697,-6.8707,-6.8651,-6.8642,-6.8672,-6.8688,-6.8698,-6.8696,-6.8296,-6.8633,-6.863,-6.8628,-6.8627,-6.8625,-6.7797,-6.788,-6.7894,-6.7937,-6.7951,-6.8022,-6.806,-6.8015,-6.8058,-6.8095,-6.8161,-6.8231,-6.8284,-6.841,-6.8403,-6.8465,-6.8438,-6.8569,-6.8447,-6.8461,-6.8442,-6.8438,-6.8447,-6.8593,-6.8597,-6.8601,-6.8603,0,-6.7631,-6.7602,-6.7726,-6.7729,-6.7733,-6.7824,-6.7827,-6.7897,-6.7882,-6.7976,-6.7995,-6.7973,-6.8049,-6.8019,-6.8099,-6.8082,-6.8237,-6.8208,-6.8229,-6.8221,-6.8337,-6.8327,-6.8713,-6.8762,-6.8406,-6.8409,-6.8412,0,-6.7364,-6.7475,-6.7426,-6.7499,-6.7622,-6.757,-6.7694,-6.7693,-6.7711,-6.7784,-6.7712,-6.7782,-6.7732,-6.7799,-6.7773,-6.7894,-6.7908,-6.7902,-6.7894,-6.7909,-6.791,-6.7932,-6.7916,-6.7869,-6.7867,-6.7866,-6.7864,0,-6.7107,-6.7209,-6.7327,-6.7345,-6.7358,-6.7416,-6.7424,-6.7442,-6.748,-6.7525,-6.7549,-6.7606,-6.7637,-6.7683,-6.7648,-6.7567,-6.7794,-6.7674,-6.7788,-6.7789,-6.7839,-6.7836,-6.8186,-6.7862,-6.7861,-6.7861,-6.786,0,-6.6886,-6.6929,-6.7104,-6.7113,-6.7141,-6.7219,-6.7269,-6.7328,-6.7353,-6.734,-6.7374,-6.7321,-6.7421,-6.7306,-6.7445,-6.7349,-6.7385,-6.7387,-6.7394,-6.7401,-6.7273,-6.7475,-6.781,-6.7844,-6.741,-6.7406,-6.7403,0,-6.6601,-6.6767,-6.6722,-6.6889,-6.6961,-6.6873,-6.6959,-6.6981,-6.6971,-6.7032,-6.702,-6.709,-6.6997,-6.7014,-6.7087,-6.7078,-6.7204,-6.7061,-6.7154,-6.7158,-6.7151,-6.7458,-6.7516,-6.774,-6.7354,-6.7359,-6.7363,0,-6.6375,-6.6385,-6.6418,-6.6436,-6.6454,-6.6513,-6.6611,-6.6667,-6.6711,-6.6742,-6.6824,-6.6921,-6.6855,-6.6884,-6.6845,-6.6923,-6.7118,-6.6841,-6.6841,-6.6894,-6.7326,-6.738,-6.7418,-6.7076,-6.7081,-6.7086,-6.7324,0,-6.6051,-6.6128,-6.6214,-6.6254,-6.6294,-6.6395,-6.6356,-6.6404,-6.6362,-6.6347,-6.6466,-6.6474,-6.6531,-6.6564,-6.6523,-6.6709,-6.6673,-6.6601,-6.6485,-6.6687,-6.6764,-6.6796,-6.6373,-6.6369,-6.6366,-6.6364,0,0,-6.5786,-6.5894,-6.5838,-6.5929,-6.5959,-6.5863,-6.5974,-6.5993,-6.6032,-6.6056,-6.5991,-6.6128,-6.6136,-6.6285,-6.6345,-6.6367,-6.6398,-6.6327,-6.6591,-6.6616,-6.664,-6.6724,-6.6757,-6.6358,-6.6357,-6.6356,-6.6355,0,-6.5658,-6.5665,-6.5774,-6.579,-6.5811,-6.5787,-6.5814,-6.5817,-6.5812,-6.5926,-6.5846,-6.5912,-6.6021,-6.6042,-6.6067,-6.6309,-6.6245,-6.6329,-6.6473,-6.6561,-6.6591,-6.6617,-6.6705,-6.6738,-6.6348,-6.6348,-6.6348,0,-6.5429,-6.543,-6.5478,-6.5538,-6.555,-6.5625,-6.5494,-6.5578,-6.5634,-6.5524,-6.5638,-6.5637,-6.566,-6.5804,-6.5867,-6.5809,-6.6108,-6.6005,-6.6024,-6.603,-6.6114,-6.6149,-6.6181,-6.5764,-6.5762,-6.576,0,0,-6.5325,-6.5394,-6.5378,-6.5507,-6.5521,-6.5486,-6.5521,-6.5481,-6.5502,-6.5511,-6.5507,-6.5531,-6.5594,-6.5636,-6.5693,-6.5856,-6.5857,-6.5935,-6.5963,-6.5985,-6.6004,-6.6094,-6.6129,-6.5753,-6.5753,-6.5753,0,0,-6.5274,-6.526,-6.5213,-6.5356,-6.5379,-6.5372,-6.5453,-6.5395,-6.5441,-6.5425,-6.5362,-6.5366,-6.5499,-6.5501,-6.541,-6.5651,-6.5537,-6.5558,-6.5645,-6.5679,-6.5706,-6.5703,-6.5277,0,0,0,0,0,-6.5122,-6.5262,-6.5219,-6.5237,-6.5311,-6.5396,-6.5405,-6.5356,-6.5277,-6.5343,-6.533,-6.5258,-6.544,-6.5358,-6.5378,-6.5479,-6.5662,-6.5678,-6.5693,-6.5843,-6.5879,-6.591,0,0,0,0,0,0,-6.5128,-6.515,-6.5215,-6.5215,-6.5231,-6.539,-6.5246,-6.5236,-6.5268,-6.5253,-6.5262,-6.5258,-6.5218,-6.5345,-6.5363,-6.546,-6.527,-6.5668,-6.5682,-6.5694,-6.5856,-6.5885,-6.5911,0,0,0,0,0,-6.5133,-6.5151,-6.5282,-6.5212,-6.5227,-6.5194,-6.524,-6.5231,-6.5255,-6.5235,-6.5228,-6.5214,-6.5222,-6.5234,-6.5355,-6.5453,-6.5257,-6.5264,-6.5677,-6.5688,-6.5698,-6.587,0,0,0,0,0,0,-6.5137,-6.5144,-6.5284,-6.5286,-6.5154,-6.5184,-6.5187,-6.5227,-6.5233,-6.5228,-6.5183,-6.5171,-6.5227,-6.5235,-6.5245,-6.5453,-6.5247,-6.5254,-6.5258,-6.5685,-6.5694,-6.5702,0,0,0,0,0,0,-6.5134,-6.5147,-6.5285,-6.5215,-6.5209,-6.5176,-6.5178,-6.5273,-6.5235,-6.5181,-6.5171,-6.5177,-6.5213,-6.5237,-6.5244,-6.5394,-6.5238,-6.5245,-6.525,-6.5253,-6.5692,-6.5699,0,0,0,0,0,0,-6.5138,-6.5149,-6.5214,-6.5209,-6.5203,-6.5228,-6.5258,-6.5338,-6.5173,-6.5182,-6.5157,-6.515,-6.5217,-6.5222,-6.5244,-6.5392,-6.5394,-6.5239,-6.5243,-6.5247,-6.5249,0,0,0,0,0,0,0,-6.5142,-6.508,-6.5269,-6.5205,-6.5199,-6.531,-6.531,-6.5311,-6.5171,-6.5165,-6.5159,-6.5153,-6.5199,-6.5207,-6.5214,-6.539,0,0,-6.5238,-6.5241,0,0,0,0,0,0,0,0,-6.5075,-6.5079,-6.5269,-6.527,-6.527,-6.531,-6.531,-6.5311,-6.517,-6.5165,-6.516,-6.5155,-6.5201,-6.5207,-6.5213,0,0,0,0,0,0,0,0,0,0,0,0,0,0,0,-6.5269,-6.527,0,-6.531,-6.531,-6.5311,-6.517,-6.5165,-6.5161,-6.5157,-6.5203,-6.5208,-6.5213,0,0,0,0,0,0,0,0,0,0,0,0,0,0,0,0,0,0,0,0,0,0,0,0,0,0,0,0,0,0,0,0,0,0,0,0,0,0,0,0,0,0,0,0,0,0,0,0,0,0,0,0,0,0,0,0,0,0,0,0,0,0,0,0,0,0,0,0,0]}],[{"header":{"parameterUnit":"kt","parameterCategory":2,"dx":1,"dy":1,"la1":30.253999710083008,"la2":30.299108505249023,"lo1":-89.0895004272461,"lo2":-89.04439544677734,"nx":28,"ny":28,"refTime":"2022-10-10T21:00:00:Z","depth":0,"parameterNumber":2,"parameterNumberName":"V-component_of_WINDS"},"data":[0.9544,0.9442,0.9453,0.934,0.9331,0.9253,0.9229,0.9198,0.9175,0.9081,0.9028,0.9026,0.9003,0.8939,0.888,0.8879,0.8851,0.8808,0.8813,0.9003,0.9029,0.9054,0.908,0.8803,0.8803,0.8614,0.8613,0.8611,0.9684,0.9675,0.9619,0.9572,0.9523,0.9573,0.9537,0.9492,0.942,0.9391,0.9339,0.9256,0.919,0.9181,0.9117,0.9065,0.9082,0.9047,0.9048,0.9043,0.9247,0.9275,0.9035,0.9035,0.9035,0.9035,0.9035,0.9035,0.9941,0.9879,0.9858,0.9797,0.9776,0.9743,0.9684,0.9684,0.9626,0.9565,0.9587,0.9504,0.9473,0.94,0.9376,0.9309,0.9348,0.9311,0.9301,0.929,0.9277,0.9544,0.9299,0.93,0.93,0.9301,0.9301,0,1.0132,1.0146,1.0093,1.0043,0.9998,0.9959,0.9924,0.9888,0.9917,0.9867,0.9795,0.9755,0.9673,0.9603,0.9545,0.9527,0.9566,0.9572,0.9546,0.9532,0.9528,0.9526,0.9855,0.9577,0.958,0.9581,0.9583,0.9584,1.0389,1.0315,1.0298,1.0259,1.0243,1.0178,1.0142,1.0173,1.0131,1.0091,1.0031,0.9964,0.9911,0.979,0.9784,0.972,0.9737,0.9631,0.9728,0.972,0.9731,0.9734,0.9725,0.9609,0.9606,0.9603,0.9601,0,1.0531,1.0551,1.044,1.0429,1.0424,1.0344,1.0332,1.0269,1.0275,1.0188,1.017,1.0176,1.0102,1.0115,1.0031,1.0039,0.99,0.9921,0.9912,0.9915,0.9818,0.9825,0.9506,0.9465,0.9757,0.9754,0.9752,0,1.0756,1.0657,1.0691,1.0625,1.0517,1.0552,1.0442,1.0436,1.0412,1.0344,1.0395,1.0329,1.0355,1.029,1.0301,1.0191,1.0176,1.0173,1.0176,1.0166,1.0166,1.0138,1.015,1.0191,1.0193,1.0194,1.0196,0,1.0974,1.0878,1.0773,1.0753,1.0729,1.0678,1.0664,1.0638,1.06,1.0552,1.0527,1.0468,1.0434,1.0386,1.0401,1.0466,1.0267,1.0359,1.0264,1.0263,1.0215,1.0217,0.9936,1.0198,1.0198,1.0199,1.0199,0,1.1156,1.1113,1.0959,1.094,1.0913,1.0842,1.0789,1.0732,1.0699,1.0703,1.0665,1.0698,1.0605,1.0696,1.0567,1.0647,1.061,1.0601,1.0594,1.0582,1.0682,1.0517,1.0253,1.0223,1.0577,1.058,1.0583,0,1.14,1.125,1.1279,1.113,1.1062,1.1125,1.1047,1.1017,1.1016,1.0955,1.0953,1.0882,1.0953,1.0931,1.0867,1.0859,1.0754,1.0874,1.0777,1.0773,1.0782,1.054,1.0495,1.0311,1.0623,1.0619,1.0616,0,1.1591,1.1566,1.1537,1.1515,1.1485,1.1427,1.1338,1.1277,1.1235,1.1196,1.1119,1.102,1.1068,1.1032,1.1052,1.0983,1.0826,1.1043,1.1042,1.1,1.0646,1.0604,1.0573,1.0854,1.0849,1.0845,1.0648,0,1.1857,1.1784,1.1709,1.166,1.1618,1.1526,1.1543,1.1497,1.1522,1.1523,1.1411,1.1386,1.1319,1.1288,1.131,1.115,1.1177,1.1229,1.1314,1.1156,1.1091,1.1065,1.141,1.1412,1.1415,1.1416,0,0,1.2082,1.1979,1.2013,1.193,1.1896,1.1962,1.1861,1.1835,1.178,1.1754,1.1804,1.1659,1.1635,1.1495,1.1448,1.1421,1.1392,1.1446,1.1232,1.1211,1.1192,1.1123,1.1096,1.142,1.1421,1.1422,1.1422,0,1.2183,1.2167,1.207,1.2046,1.2013,1.202,1.1996,1.1972,1.1967,1.1859,1.1909,1.1843,1.1726,1.1694,1.1662,1.1465,1.1503,1.1444,1.1333,1.1254,1.123,1.121,1.1136,1.111,1.1428,1.1427,1.1427,0,1.2371,1.2357,1.2312,1.2243,1.222,1.2147,1.2244,1.2163,1.2108,1.2177,1.2067,1.2054,1.2012,1.1879,1.182,1.1861,1.1603,1.1687,1.1674,1.1666,1.159,1.1561,1.1536,1.1866,1.1867,1.1869,0,0,1.2454,1.2388,1.238,1.2265,1.2248,1.2257,1.2219,1.224,1.2205,1.219,1.2174,1.2135,1.2067,1.2021,1.1958,1.1811,1.1802,1.1741,1.172,1.1703,1.1686,1.1605,1.1578,1.1874,1.1875,1.1875,0,0,1.2492,1.2481,1.2514,1.2384,1.2351,1.2332,1.2259,1.2297,1.2243,1.2255,1.2282,1.2272,1.2148,1.2132,1.2207,1.1987,1.2072,1.2054,1.2002,1.1976,1.1955,1.196,1.2296,0,0,0,0,0,1.2604,1.2484,1.2514,1.2495,1.2404,1.2316,1.2304,1.2327,1.2388,1.2329,1.2322,1.2367,1.2178,1.2245,1.2222,1.2137,1.1947,1.1934,1.1922,1.182,1.1793,1.177,0,0,0,0,0,0,1.2596,1.2573,1.2517,1.2493,1.2473,1.2321,1.2428,1.2431,1.2394,1.2405,1.2367,1.2366,1.238,1.2257,1.2237,1.2156,1.2303,1.1942,1.1931,1.1921,1.1811,1.1788,1.1769,0,0,0,0,0,1.2591,1.2572,1.2421,1.2495,1.2477,1.2479,1.2433,1.2436,1.2407,1.2395,1.2396,1.2428,1.2377,1.2361,1.2245,1.2165,1.2317,1.2309,1.1935,1.1926,1.1919,1.18,0,0,0,0,0,0,1.2586,1.2572,1.2418,1.2414,1.2542,1.2488,1.248,1.244,1.2401,1.24,1.2458,1.2467,1.2374,1.2362,1.235,1.2166,1.2329,1.2321,1.2316,1.1928,1.1922,1.1916,0,0,0,0,0,0,1.2583,1.2568,1.2416,1.2475,1.2477,1.2496,1.2489,1.2393,1.2399,1.2465,1.2472,1.2462,1.2391,1.2362,1.2352,1.2201,1.2337,1.233,1.2325,1.2322,1.1923,1.1918,0,0,0,0,0,0,1.2577,1.2564,1.2476,1.2478,1.248,1.2429,1.241,1.2315,1.2455,1.2466,1.2468,1.2474,1.2389,1.238,1.2354,1.2206,1.2202,1.2337,1.2332,1.2329,1.2326,0,0,0,0,0,0,0,1.2572,1.2652,1.2447,1.248,1.2483,1.2371,1.2369,1.2368,1.2456,1.2461,1.2466,1.2471,1.238,1.2372,1.2364,1.221,0,0,1.2338,1.2334,0,0,0,0,0,0,0,0,1.2658,1.2654,1.2446,1.2446,1.2445,1.237,1.2369,1.2368,1.2457,1.2461,1.2465,1.2469,1.2378,1.2371,1.2364,0,0,0,0,0,0,0,0,0,0,0,0,0,0,0,1.2446,1.2446,0,1.237,1.2369,1.2368,1.2458,1.2461,1.2464,1.2468,1.2376,1.2371,1.2365,0,0,0,0,0,0,0,0,0,0,0,0,0,0,0,0,0,0,0,0,0,0,0,0,0,0,0,0,0,0,0,0,0,0,0,0,0,0,0,0,0,0,0,0,0,0,0,0,0,0,0,0,0,0,0,0,0,0,0,0,0,0,0,0,0,0,0,0,0]}]]]